{"data":{"norad_id":65826,"epoch":"2026-09-20T22:56:48.434496Z","epoch_age_seconds":66690,"freshness":"FRESH","line1":"1 65826U 25221D   26263.95611614  .00016966  00000+0  51193-3 0  9990","line2":"2 65826  53.1577 257.5201 0002157  84.8743 275.2505 15.34411959 56030","mean_motion":15.34411959,"eccentricity":0.0002157,"inclination_deg":53.1577,"raan_deg":257.5201,"arg_perigee_deg":84.8743,"mean_anomaly_deg":275.2505,"bstar":0.00051193,"rev_number":5603,"period_min":93.847026644557,"perigee_km":461.19213419684,"apogee_km":464.1432573426,"semimajor_km":6840.8046957697,"source":"CELESTRAK","updated_at":"2026-09-21T09:00:35.719431Z"}}